Regional Weather Roundup
Issued by NWS

Home | Current Version | Previous Version | Text Only | Print | Product List | Glossary Off
Versions: 1 2 3 4 5 6 7 8 9 10 11 12 13 14 15 16 17 18 19 20 21 22 23 24 25 26 27 28

000
ASUS45 KSLC 240610
RWRUT

UTAH REGIONAL WEATHER ROUNDUP
NATIONAL WEATHER SERVICE SALT LAKE CITY UT
1200 AM MDT FRI OCT 24 2014

UTZ001>011-023>025-240700-

NORTHERN UTAH

CITY           SKY/WX    TMP DP  RH WIND       PRES   REMARKS
BRIGHAM CITY   CLOUDY    49  39  67 CALM      30.09R
HILL AFB       CLOUDY    57  37  46 S6        30.10R
LOGAN          CLEAR     44  37  76 CALM      30.10R
OGDEN          CLOUDY    53  36  52 S6        30.08R
PROVO AIRPORT  PTCLDY    52  30  43 SE9       30.13R
SALT LAKE CITY MOCLDY    55  41  59 NW7       30.07R
VERNAL         PTCLDY    44  35  70 W3        30.20S
WENDOVER       CLOUDY    52  34  50 CALM      30.10R
HEBER CITY     PTCLDY    45  28  53 SE5       30.16S
WEST JORDAN    CLEAR     66  37  34 S16       30.09R

$$

UTZ012>022-026-027-240700-

SOUTHERN/CENTRAL UTAH

CITY           SKY/WX    TMP DP  RH WIND       PRES   REMARKS
BLANDING       MOCLDY    47  30  52 N7        30.35S
BRYCE CANYON   MOCLDY    30  25  81 SW6       30.36S WCI  24
CEDAR CITY     MOCLDY    43  30  60 CALM      30.21S
DELTA          PTCLDY    58  27  30 S10       30.14R
HANKSVILLE       N/A     54  32  43 CALM      30.19R
MILFORD        PTCLDY    54  30  40 SW13      30.18R
MOAB/CYNLANDS  CLEAR     50  31  48 CALM      30.17S
PRICE          PTCLDY    48  34  58 NE7       30.24R
ST GEORGE      PTCLDY    63  30  29 SE3       30.13R

$$

REGIONAL REPORTS     COLORADO/ARIZONA

CITY           SKY/WX    TMP DP  RH WIND       PRES   REMARKS
CRAIG, CO      PTCLDY    41  34  76 E3        30.25R
GRAND JUNCTION CLEAR     51  38  60 E6        30.21S
RIFLE          PTCLDY    44  38  79 CALM      30.26S
MONTROSE       CLEAR     47  35  63 SE9       30.29S
CORTEZ         CLEAR     39  30  70 E5        30.31F
PAGE, AZ       MOCLDY    62  33  33 S3        30.19R
GRAND CANYON   PTCLDY    35  26  69 CALM      30.34R HAZE
KINGMAN        CLEAR     59  39  47 SE10      30.13R
FLAGSTAFF      PTCLDY    38  31  76 CALM      30.36S

$$

REGIONAL REPORTS    NEVADA/IDAHO/WYOMING

CITY           SKY/WX    TMP DP  RH WIND       PRES   REMARKS
LAS VEGAS, NV  CLEAR     72  36  26 SW7       30.00R
ELY            PTCLDY    52  25  35 SW16      30.20R
ELKO           PTCLDY    43  23  45 NE3       30.10R
POCATELLO, ID  CLOUDY    45  35  68 SE5       30.12F
BURLEY         PTCLDY    44  37  76 SW3       30.11R
EVANSTON, WY   MOCLDY    52  23  32 SW12      30.20R
ROCK SPRINGS   MOCLDY    49  26  41 CALM      30.19S
KEMMERER       MOCLDY    43  27  52 CALM      30.21S

$$



USA.gov is the U.S. government's official web portal to all federal, state and local government web resources and services.